Regional Weather Roundup
Issued by NWS

Home | Current Version | Previous Version | Text Only | Print | Product List | Glossary On
Versions: 1 2 3 4 5 6 7 8 9 10 11 12 13 14 15 16 17 18 19 20 21 22 23 24 25 26 27 28 29 30 31 32 33 34 35 36 37 38 39 40 41 42 43 44 45 46 47 48 49 50
000
ASUS43 KIND 301609
RWRIN

WEATHER ROUNDUP FOR INDIANA
NATIONAL WEATHER SERVICE INDIANAPOLIS IN
1200 PM EDT MON MAY 30 2016

NOTE: "FAIR" INDICATES FEW OR NO CLOUDS BELOW 12,000 FEET WITH NO
SIGNIFICANT WEATHER AND/OR OBSTRUCTIONS TO VISIBILITY.

* - STATION DOES NOT REPORT WEATHER SUCH AS PRECIPITATION OR FOG.

+ - STATION NOT QUALITY CONTROLLED BY THE NATIONAL WEATHER SERVICE.
    USE DATA WITH CAUTION...ESPECIALLY DEWPOINT AND RELATIVE
    HUMIDITY OBSERVATIONS.

INZ001>003-010>013-019-020-301700-
NORTHWEST INDIANA

CITY           SKY/WX    TMP DP  RH WIND       PRES   REMARKS
GARY /AIRPORT/ MOSUNNY   82  66  57 W9        30.05R
KNOX *+        SUNNY     81  43  26 SW10      30.05R
LA PORTE +     SUNNY     82  59  46 W13       30.06R
MICHIGAN CITY+ SUNNY     77  59  53 W6        30.06R
MONTICELLO +   MOSUNNY   82  47  29 W8        30.05S
RENSSELAER +   SUNNY     82  52  34 W12       30.06F
VALPARAISO     SUNNY     82  58  43 W10       30.05S

$$

LMZ046-743>745-301700-
SOUTHERN LAKE MICHIGAN

STATION/POSITION TIME  TEMP    WIND        PRES    WAVE
                       AIR SEA DIR/SP/G            HT
                 (UTC) (F)     (DEG/KT/KT) (MB)    (FT)
BURNS HARBOR     1500   70     330/  3/  3 1017.6S
MICHIGAN CITY    1500   68     240/  6/  6   N/A
5NW MICH CITY    1600   67 60  260/  2/  2   N/A     0

$$

INZ004-005-014>016-021>024-301700-
NORTH CENTRAL INDIANA

CITY           SKY/WX    TMP DP  RH WIND       PRES   REMARKS
ELKHART        SUNNY     81  63  54 NW12      30.05R
GOSHEN         SUNNY     80  58  46 W8G16     30.04R
LOGANSPORT +   SUNNY     81  55  41 W7        30.07S
PERU/GRISSOM   SUNNY     81  57  42 NW8       30.06R
ROCHESTER +    SUNNY     82  59  44 W10G16    30.06R
SOUTH BEND     SUNNY     80  58  46 NW10      30.05R
WARSAW +       MOSUNNY   81  57  44 W12G17    30.05R

$$

INZ006>009-017-018-025>027-301700-
NORTHEAST INDIANA

CITY           SKY/WX    TMP DP  RH WIND       PRES   REMARKS
ANGOLA *+        N/A     81  75  83 W8        30.03S
AUBURN +       SUNNY     81  54  39 NW10      30.05S
FORT WAYNE     PTSUNNY   84  57  39 NW9G20    30.05S
HUNTINGTON +   PTSUNNY   80  57  46 W9        30.05S

$$

INZ028-029-035-036-043>045-051>053-301700-
WEST CENTRAL INDIANA

CITY           SKY/WX    TMP DP  RH WIND       PRES   REMARKS
CRAWFORDSVL +  SUNNY     80  55  41 SW5       30.07F
GREENCASTLE +  SUNNY     79  61  53 CALM      30.08S
LAFAYETTE      SUNNY     81  56  42 W6        30.04F
TERRE HAUTE    MOSUNNY   81  57  43 VRB5      30.07F

$$

INZ030>032-037>040-046>048-054>057-064-065-301700-
CENTRAL INDIANA

CITY           SKY/WX    TMP DP  RH WIND       PRES   REMARKS
CP ATTERBURY + SUNNY     81  59  47 E3        30.08F
COLUMBUS       SUNNY     81  57  44 NW5       30.06F
FISHERS *+     SUNNY     81  61  50 CALM      30.07
FRANKFORT +      N/A     84  33  16 NW6       30.08F
GREENWOOD *+   SUNNY     79  57  47 CALM      30.07F
INDIANAPOLIS   MOSUNNY   81  57  43 VRB6      30.05F
-EAGLE CREEK   SUNNY     82  57  42 NW3       30.06F
KOKOMO *+      MOSUNNY   82  57  42 W9        30.06S
MARION +       SUNNY     81  53  38 W12       30.08R
SHELBYVILLE    SUNNY     83  53  35 N6        30.06F
ZIONSVILLE +   SUNNY     79  54  41 CALM      30.08F

$$

INZ033-034-041-042-049-050-058-059-301700-
EAST CENTRAL INDIANA

CITY           SKY/WX    TMP DP  RH WIND       PRES   REMARKS
MUNCIE         MOSUNNY   82  55  39 VRB7      30.08R

$$

INZ060-061-067>069-081>083-085>088-301700-
SOUTHWEST INDIANA

CITY           SKY/WX    TMP DP  RH WIND       PRES   REMARKS
EVANSVILLE     SUNNY     82  55  39 CALM      30.07F
HUNTINGBURG *+ SUNNY     81  63  54 N3        30.07S
WASHINGTON +   SUNNY     81  62  53 CALM      30.06F

$$

INZ062-063-066-070>080-084-089>092-301700-
SOUTH CENTRAL AND SOUTHEAST INDIANA

CITY           SKY/WX    TMP DP  RH WIND       PRES   REMARKS
BEDFORD +      SUNNY     81  66  61 NE3       30.07S
BLOOMINGTON    SUNNY     81  58  45 VRB3      30.08S
MADISON *+     SUNNY     81  54  39 CALM      30.08F
NORTH VERNON + SUNNY     82  64  54 CALM      30.07F
SEYMOUR +      SUNNY     82  57  42 NW7       30.06F

$$





USA.gov is the U.S. government's official web portal to all federal, state and local government web resources and services.